Home > Weather > Walnut Creek > Past weeks

Flag for U.S.A. Weather for the Past 2 Weeks in Walnut Creek, California, U.S.A.

Now
59 °F

Sunny.


Feels Like: 58 °F
Forecast: 42 / 65 °F
Wind: 6 mph from North

Location: Buchanan Field

Current Time: Feb 6, 2016 at 11:41:23 AM

Latest Report: Feb 6, 2016 at 10:53 AM


Visibility: 10 mi

Pressure: 30.41 "Hg

Humidity: 60%

Dew point: 45 °F

Location of Walnut CreekLocation

Historic Weather in Walnut Creek — Graph

°F

Walnut Creek Temperature Yesterday

Maximum temperature yesterday: 62 °F (at 2:53 PM)
Minimum temperature yesterday: 37 °F (at 6:53 AM)
Average temperature yesterday: 48 °F

High & Low Weather Summary for the Past Weeks

 TemperatureHumidityPressure
High64 °F (Jan 27, 2:53 PM)93% (Jan 26, 7:53 AM)30.45 "Hg (Jan 26, 7:53 AM)
Low37 °F (Feb 5, 6:53 AM)27% (Feb 1, 2:53 PM)29.70 "Hg (Jan 31, 2:53 PM)
Average52 °F71%30.17 "Hg
* Reported Jan 22 9:53 AM — Feb 6 9:53 AM, Walnut Creek, Weather by CustomWeather, © 2016

Note: Actual official high and low records may vary slightly from our data, if they occured in-between our weather recording intervals... More about our weather records

Advertising

Walnut Creek Weather History for the Previous 24 Hours

 ConditionsComfort  
Time TempWeatherWind HumidityBarometerVisibility
9:53 AM
Sat, Feb 6
54 °FSunny.3 mph69%30.41 "Hg10 mi
8:53 AM47 °FScattered clouds.No wind80%30.41 "Hg10 mi
8:01 AM41 °FFog.No wind89%30.45 "Hg3 mi
7:53 AM41 °FFog.No wind86%30.40 "Hg2 mi
6:53 AM40 °FFog.3 mph86%30.40 "Hg4 mi
5:53 AM39 °FFog.No wind89%30.39 "Hg4 mi
4:53 AM40 °FFog.No wind89%30.38 "Hg3 mi
3:53 AM41 °FFog.No wind89%30.37 "Hg4 mi
2:53 AM42 °FFog.No wind85%30.36 "Hg4 mi
1:53 AM43 °FFog.3 mph86%30.36 "Hg5 mi
12:53 AM44 °FFog.No wind85%30.38 "Hg5 mi
11:53 PM
Fri, Feb 5
47 °FClear.3 mph80%30.39 "Hg7 mi
10:53 PM45 °FFog.3 mph86%30.39 "Hg6 mi
9:53 PM46 °FClear.No wind83%30.40 "Hg6 mi
8:53 PM48 °FClear.5 mph80%30.37 "Hg7 mi
7:53 PM48 °FClear.No wind80%30.36 "Hg7 mi
6:53 PM52 °FClear.3 mph72%30.35 "Hg10 mi
5:53 PM56 °FClear.3 mph62%30.33 "Hg10 mi
4:53 PM59 °FSunny.8 mph58%30.33 "Hg10 mi
3:53 PM60 °FSunny.10 mph58%30.34 "Hg10 mi
2:53 PM62 °FSunny.7 mph56%30.35 "Hg10 mi
1:53 PM61 °FSunny.8 mph56%30.37 "Hg10 mi
12:53 PM60 °FSunny.10 mph56%30.38 "Hg10 mi
11:53 AM58 °FSunny.6 mph62%30.40 "Hg10 mi
Weather by CustomWeather, © 2016

See weather overviewHow to use our weather pages